Time,TemperatureF,DewpointF,PressureIn,WindDirection,WindDirectionDegrees,WindSpeedMPH,WindSpeedGustMPH,Humidity,HourlyPrecipIn,Conditions,Clouds,dailyrainin,SolarRadiationWatts/m^2,SoftwareType,DateUTC
2013-01-24 00:00:00,30.7,21.0,30.10,WNW,283,5.0,9.0,67,0.00,,,0.00,0,Wunderground v.1.15,2013-01-24 05:00:00,
2013-01-24 00:05:00,30.6,20.9,30.10,WNW,285,5.0,9.0,67,0.00,,,0.00,0,Wunderground v.1.15,2013-01-24 05:05:00,
2013-01-24 00:15:00,30.5,20.8,30.11,WNW,291,5.0,6.0,67,0.00,,,0.00,0,Wunderground v.1.15,2013-01-24 05:15:00,
2013-01-24 00:20:00,30.3,21.0,30.11,WNW,297,4.0,4.0,68,0.00,,,0.00,0,Wunderground v.1.15,2013-01-24 05:20:00,
2013-01-24 00:30:00,30.0,20.7,30.12,WNW,293,4.0,4.0,68,0.00,,,0.00,0,Wunderground v.1.15,2013-01-24 05:30:00,
2013-01-24 00:35:00,30.0,20.7,30.12,WNW,291,4.0,4.0,68,0.00,,,0.00,0,Wunderground v.1.15,2013-01-24 05:35:00,
2013-01-24 00:45:00,29.8,20.9,30.13,WNW,289,4.0,4.0,69,0.00,,,0.00,0,Wunderground v.1.15,2013-01-24 05:45:00,
2013-01-24 00:50:00,29.5,20.6,30.12,West,274,3.0,5.0,69,0.00,,,0.00,0,Wunderground v.1.15,2013-01-24 05:50:00,
2013-01-24 01:00:00,29.9,21.0,30.12,WNW,303,6.0,7.0,69,0.00,,,0.00,0,Wunderground v.1.15,2013-01-24 06:00:00,
2013-01-24 01:05:00,30.0,20.7,30.13,NW,316,7.0,12.0,68,0.00,,,0.00,0,Wunderground v.1.15,2013-01-24 06:05:00,
2013-01-24 01:15:00,30.0,20.7,30.13,WNW,301,9.0,9.0,68,0.00,,,0.00,0,Wunderground v.1.15,2013-01-24 06:15:00,
2013-01-24 01:20:00,29.8,20.5,30.14,WNW,284,8.0,10.0,68,0.00,,,0.00,0,Wunderground v.1.15,2013-01-24 06:20:00,
2013-01-24 01:30:00,29.6,20.0,30.14,WNW,303,11.0,12.0,67,0.00,,,0.00,0,Wunderground v.1.15,2013-01-24 06:30:00,
2013-01-24 01:35:00,29.5,19.9,30.15,WNW,292,11.0,12.0,67,0.00,,,0.00,0,Wunderground v.1.15,2013-01-24 06:35:00,
2013-01-24 01:45:00,29.2,19.6,30.16,WNW,301,10.0,12.0,67,0.00,,,0.00,0,Wunderground v.1.15,2013-01-24 06:45:00,
2013-01-24 01:55:00,28.7,19.5,30.17,NW,314,9.0,11.0,68,0.00,,,0.00,0,Wunderground v.1.15,2013-01-24 06:55:00,
2013-01-24 02:00:00,28.4,18.8,30.17,NW,318,8.0,9.0,67,0.00,,,0.00,0,Wunderground v.1.15,2013-01-24 07:00:00,
2013-01-24 02:10:00,27.9,18.4,30.18,NW,310,9.0,9.0,67,0.00,,,0.00,0,Wunderground v.1.15,2013-01-24 07:10:00,
2013-01-24 02:15:00,27.7,18.2,30.18,North,354,7.0,9.0,67,0.00,,,0.00,0,Wunderground v.1.15,2013-01-24 07:15:00,
2013-01-24 02:25:00,27.2,17.3,30.19,NW,308,8.0,9.0,66,0.00,,,0.00,0,Wunderground v.1.15,2013-01-24 07:25:00,
2013-01-24 02:35:00,27.0,16.8,30.19,NNW,332,8.0,8.0,65,0.00,,,0.00,0,Wunderground v.1.15,2013-01-24 07:35:00,
2013-01-24 02:45:00,26.6,16.1,30.21,NW,318,7.0,11.0,64,0.00,,,0.00,0,Wunderground v.1.15,2013-01-24 07:45:00,
2013-01-24 02:55:00,26.3,15.8,30.22,NW,316,4.0,11.0,64,0.00,,,0.00,0,Wunderground v.1.15,2013-01-24 07:55:00,
2013-01-24 03:00:00,26.3,15.4,30.22,NNW,347,7.0,10.0,63,0.00,,,0.00,0,Wunderground v.1.15,2013-01-24 08:00:00,
2013-01-24 03:10:00,26.0,14.8,30.23,NW,326,7.0,7.0,62,0.00,,,0.00,0,Wunderground v.1.15,2013-01-24 08:10:00,
2013-01-24 03:20:00,25.5,14.3,30.24,WNW,297,6.0,6.0,62,0.00,,,0.00,0,Wunderground v.1.15,2013-01-24 08:20:00,
2013-01-24 03:30:00,25.1,13.5,30.25,West,263,6.0,6.0,61,0.00,,,0.00,0,Wunderground v.1.15,2013-01-24 08:30:00,
2013-01-24 03:35:00,25.0,13.4,30.25,NNW,332,7.0,7.0,61,0.00,,,0.00,0,Wunderground v.1.15,2013-01-24 08:35:00,
2013-01-24 03:45:00,24.6,13.4,30.25,NNW,330,6.0,7.0,62,0.00,,,0.00,0,Wunderground v.1.15,2013-01-24 08:45:00,
2013-01-24 03:55:00,24.3,12.8,30.26,NW,305,7.0,9.0,61,0.00,,,0.00,0,Wunderground v.1.15,2013-01-24 08:55:00,
2013-01-24 04:00:00,24.1,12.6,30.26,NNW,331,7.0,8.0,61,0.00,,,0.00,0,Wunderground v.1.15,2013-01-24 09:00:00,
2013-01-24 04:10:00,24.0,12.5,30.27,NW,308,8.0,8.0,61,0.00,,,0.00,0,Wunderground v.1.15,2013-01-24 09:10:00,
2013-01-24 04:15:00,23.9,12.4,30.28,North,354,8.0,8.0,61,0.00,,,0.00,0,Wunderground v.1.15,2013-01-24 09:15:00,
2013-01-24 04:25:00,23.7,12.6,30.28,North,359,6.0,7.0,62,0.00,,,0.00,0,Wunderground v.1.15,2013-01-24 09:25:00,
2013-01-24 04:30:00,23.6,12.8,30.28,NNW,337,5.0,9.0,63,0.00,,,0.00,0,Wunderground v.1.15,2013-01-24 09:30:00,
2013-01-24 04:40:00,23.5,13.1,30.29,NNW,330,6.0,6.0,64,0.00,,,0.00,0,Wunderground v.1.15,2013-01-24 09:40:00,
2013-01-24 04:50:00,23.5,12.7,30.30,NNE,14,5.0,8.0,63,0.00,,,0.00,0,Wunderground v.1.15,2013-01-24 09:50:00,
2013-01-24 04:55:00,23.5,11.3,30.31,NNE,16,6.0,8.0,59,0.00,,,0.00,0,Wunderground v.1.15,2013-01-24 09:55:00,
2013-01-24 05:05:00,23.2,9.4,30.31,NNW,329,7.0,7.0,55,0.00,,,0.00,0,Wunderground v.1.15,2013-01-24 10:05:00,
2013-01-24 05:15:00,22.8,9.4,30.31,NNE,18,5.0,7.0,56,0.00,,,0.00,0,Wunderground v.1.15,2013-01-24 10:15:00,
2013-01-24 05:25:00,22.4,8.7,30.32,North,10,8.0,8.0,55,0.00,,,0.00,0,Wunderground v.1.15,2013-01-24 10:25:00,
2013-01-24 05:35:00,22.0,9.1,30.32,North,354,6.0,7.0,57,0.00,,,0.00,0,Wunderground v.1.15,2013-01-24 10:35:00,
2013-01-24 05:40:00,21.8,8.5,30.33,North,354,6.0,8.0,56,0.00,,,0.00,0,Wunderground v.1.15,2013-01-24 10:40:00,
2013-01-24 05:50:00,21.5,8.6,30.33,North,359,6.0,6.0,57,0.00,,,0.00,0,Wunderground v.1.15,2013-01-24 10:50:00,
2013-01-24 06:00:00,21.3,8.8,30.35,NNW,345,5.0,6.0,58,0.00,,,0.00,0,Wunderground v.1.15,2013-01-24 11:00:00,
2013-01-24 06:10:00,21.0,9.3,30.35,NNE,13,4.0,4.0,60,0.00,,,0.00,0,Wunderground v.1.15,2013-01-24 11:10:00,
2013-01-24 06:15:00,20.9,9.2,30.35,NE,41,3.0,6.0,60,0.00,,,0.00,0,Wunderground v.1.15,2013-01-24 11:15:00,
2013-01-24 06:25:00,20.7,9.4,30.36,NNE,30,4.0,9.0,61,0.00,,,0.00,0,Wunderground v.1.15,2013-01-24 11:25:00,
2013-01-24 06:35:00,20.6,9.6,30.37,NNW,347,4.0,10.0,62,0.00,,,0.00,0,Wunderground v.1.15,2013-01-24 11:35:00,
2013-01-24 06:45:00,20.4,9.4,30.38,NNW,345,3.0,4.0,62,0.00,,,0.00,0,Wunderground v.1.15,2013-01-24 11:45:00,
2013-01-24 06:50:00,20.3,9.7,30.38,ENE,64,4.0,5.0,63,0.00,,,0.00,0,Wunderground v.1.15,2013-01-24 11:50:00,
2013-01-24 07:00:00,20.2,10.0,30.39,NNW,338,4.0,7.0,64,0.00,,,0.00,0,Wunderground v.1.15,2013-01-24 12:00:00,
2013-01-24 07:05:00,20.0,9.8,30.40,NNE,33,3.0,7.0,64,0.00,,,0.00,0,Wunderground v.1.15,2013-01-24 12:05:00,
2013-01-24 07:15:00,19.9,10.0,30.41,NNE,31,4.0,6.0,65,0.00,,,0.00,0,Wunderground v.1.15,2013-01-24 12:15:00,
2013-01-24 07:20:00,19.8,9.9,30.41,NNW,343,4.0,4.0,65,0.00,,,0.00,0,Wunderground v.1.15,2013-01-24 12:20:00,
2013-01-24 07:30:00,19.8,9.9,30.40,North,8,4.0,4.0,65,0.00,,,0.00,0,Wunderground v.1.15,2013-01-24 12:30:00,
2013-01-24 07:35:00,19.7,10.2,30.42,NW,315,3.0,4.0,66,0.00,,,0.00,0,Wunderground v.1.15,2013-01-24 12:35:00,
2013-01-24 07:45:00,19.7,10.5,30.42,NNW,336,2.0,5.0,67,0.00,,,0.00,0,Wunderground v.1.15,2013-01-24 12:45:00,
2013-01-24 07:55:00,19.5,10.6,30.43,NNE,17,3.0,3.0,68,0.00,,,0.00,7,Wunderground v.1.15,2013-01-24 12:55:00,
2013-01-24 08:00:00,19.3,10.5,30.43,NNE,22,3.0,5.0,68,0.00,,,0.00,9,Wunderground v.1.15,2013-01-24 13:00:00,
2013-01-24 08:10:00,19.4,10.9,30.44,NNW,346,3.0,3.0,69,0.00,,,0.00,16,Wunderground v.1.15,2013-01-24 13:10:00,
2013-01-24 08:15:00,19.4,10.9,30.43,ENE,60,3.0,3.0,69,0.00,,,0.00,25,Wunderground v.1.15,2013-01-24 13:15:00,
2013-01-24 08:25:00,19.4,11.2,30.45,NNE,15,2.0,2.0,70,0.00,,,0.00,25,Wunderground v.1.15,2013-01-24 13:25:00,
2013-01-24 08:35:00,19.5,11.3,30.44,NNE,23,2.0,3.0,70,0.00,,,0.00,46,Wunderground v.1.15,2013-01-24 13:35:00,
2013-01-24 08:45:00,19.4,11.2,30.43,East,81,3.0,6.0,70,0.00,,,0.00,58,Wunderground v.1.15,2013-01-24 13:45:00,
2013-01-24 08:50:00,19.5,11.6,30.44,ENE,64,3.0,3.0,71,0.00,,,0.00,79,Wunderground v.1.15,2013-01-24 13:50:00,
2013-01-24 09:00:00,19.6,11.4,30.44,NNE,31,4.0,4.0,70,0.00,,,0.00,88,Wunderground v.1.15,2013-01-24 14:00:00,
2013-01-24 09:10:00,19.8,11.3,30.45,NNE,23,3.0,3.0,69,0.00,,,0.00,91,Wunderground v.1.15,2013-01-24 14:10:00,
2013-01-24 09:15:00,19.9,11.0,30.46,NE,35,3.0,8.0,68,0.00,,,0.00,90,Wunderground v.1.15,2013-01-24 14:15:00,
2013-01-24 09:25:00,20.1,10.9,30.46,NNE,27,5.0,6.0,67,0.00,,,0.00,130,Wunderground v.1.15,2013-01-24 14:25:00,
2013-01-24 09:30:00,20.3,10.4,30.46,ENE,66,4.0,4.0,65,0.00,,,0.00,169,Wunderground v.1.15,2013-01-24 14:30:00,
2013-01-24 09:40:00,20.4,9.8,30.47,ENE,62,4.0,12.0,63,0.00,,,0.00,123,Wunderground v.1.15,2013-01-24 14:40:00,
2013-01-24 09:50:00,20.5,9.2,30.48,NE,56,6.0,6.0,61,0.00,,,0.00,190,Wunderground v.1.15,2013-01-24 14:50:00,
2013-01-24 09:55:00,20.6,8.1,30.48,ENE,69,6.0,6.0,58,0.00,,,0.00,258,Wunderground v.1.15,2013-01-24 14:55:00,
2013-01-24 10:05:00,21.2,7.9,30.49,NE,35,5.0,5.0,56,0.00,,,0.00,288,Wunderground v.1.15,2013-01-24 15:05:00,
2013-01-24 10:15:00,21.7,5.9,30.49,ENE,68,5.0,6.0,50,0.00,,,0.00,295,Wunderground v.1.15,2013-01-24 15:15:00,
2013-01-24 10:25:00,21.8,3.7,30.50,ENE,77,8.0,12.0,45,0.00,,,0.00,323,Wunderground v.1.15,2013-01-24 15:25:00,
2013-01-24 10:35:00,22.1,3.5,30.50,East,79,7.0,8.0,44,0.00,,,0.00,366,Wunderground v.1.15,2013-01-24 15:35:00,
2013-01-24 10:40:00,22.3,3.7,30.50,ENE,71,6.0,10.0,44,0.00,,,0.00,366,Wunderground v.1.15,2013-01-24 15:40:00,
2013-01-24 10:50:00,22.8,3.6,30.51,NE,35,5.0,9.0,43,0.00,,,0.00,380,Wunderground v.1.15,2013-01-24 15:50:00,
2013-01-24 11:00:00,23.1,3.9,30.51,NNE,32,6.0,9.0,43,0.00,,,0.00,408,Wunderground v.1.15,2013-01-24 16:00:00,
2013-01-24 11:05:00,22.8,3.1,30.52,ENE,71,7.0,9.0,42,0.00,,,0.00,424,Wunderground v.1.15,2013-01-24 16:05:00,
2013-01-24 11:15:00,22.7,2.5,30.51,ENE,71,6.0,8.0,41,0.00,,,0.00,445,Wunderground v.1.15,2013-01-24 16:15:00,
2013-01-24 11:20:00,23.2,1.9,30.52,North,359,7.0,7.0,39,0.00,,,0.00,457,Wunderground v.1.15,2013-01-24 16:20:00,
2013-01-24 11:30:00,23.3,0.8,30.52,NE,49,7.0,9.0,37,0.00,,,0.00,482,Wunderground v.1.15,2013-01-24 16:30:00,
2013-01-24 11:40:00,23.7,0.6,30.52,North,4,6.0,6.0,36,0.00,,,0.00,369,Wunderground v.1.15,2013-01-24 16:40:00,
2013-01-24 11:45:00,23.8,0.7,30.52,ENE,58,5.0,6.0,36,0.00,,,0.00,332,Wunderground v.1.15,2013-01-24 16:45:00,
2013-01-24 11:55:00,23.7,-0.6,30.52,ENE,58,7.0,9.0,34,0.00,,,0.00,420,Wunderground v.1.15,2013-01-24 16:55:00,
2013-01-24 12:00:00,23.8,-0.5,30.51,ESE,104,8.0,8.0,34,0.00,,,0.00,510,Wunderground v.1.15,2013-01-24 17:00:00,
2013-01-24 12:10:00,24.4,-0.6,30.51,NNE,32,6.0,7.0,33,0.00,,,0.00,506,Wunderground v.1.15,2013-01-24 17:10:00,
2013-01-24 12:15:00,24.3,-0.1,30.51,NE,48,6.0,7.0,34,0.00,,,0.00,489,Wunderground v.1.15,2013-01-24 17:15:00,
2013-01-24 12:25:00,24.4,-2.7,30.50,ENE,64,7.0,9.0,30,0.00,,,0.00,559,Wunderground v.1.15,2013-01-24 17:25:00,
2013-01-24 12:30:00,24.5,-1.9,30.49,ENE,66,6.0,8.0,31,0.00,,,0.00,531,Wunderground v.1.15,2013-01-24 17:30:00,
2013-01-24 12:40:00,24.9,-2.9,30.49,East,101,7.0,7.0,29,0.00,,,0.00,582,Wunderground v.1.15,2013-01-24 17:40:00,
2013-01-24 12:45:00,25.2,-2.7,30.49,ESE,116,8.0,8.0,29,0.00,,,0.00,605,Wunderground v.1.15,2013-01-24 17:45:00,
2013-01-24 12:55:00,25.2,-2.7,30.49,ENE,67,8.0,8.0,29,0.00,,,0.00,452,Wunderground v.1.15,2013-01-24 17:55:00,
2013-01-24 13:00:00,25.1,-2.0,30.48,NE,39,7.0,7.0,30,0.00,,,0.00,387,Wunderground v.1.15,2013-01-24 18:00:00,
2013-01-24 13:10:00,25.4,-1.8,30.48,ESE,112,7.0,7.0,30,0.00,,,0.00,554,Wunderground v.1.15,2013-01-24 18:10:00,
2013-01-24 13:15:00,25.1,-1.3,30.48,ENE,59,7.0,7.0,31,0.00,,,0.00,497,Wunderground v.1.15,2013-01-24 18:15:00,
2013-01-24 13:25:00,25.9,-1.3,30.48,East,92,4.0,9.0,30,0.00,,,0.00,483,Wunderground v.1.15,2013-01-24 18:25:00,
2013-01-24 13:30:00,26.2,-1.8,30.48,ENE,73,8.0,8.0,29,0.00,,,0.00,508,Wunderground v.1.15,2013-01-24 18:30:00,
2013-01-24 13:40:00,25.6,-1.6,30.47,East,87,8.0,8.0,30,0.00,,,0.00,403,Wunderground v.1.15,2013-01-24 18:40:00,
2013-01-24 13:50:00,25.3,-1.2,30.47,NE,36,6.0,7.0,31,0.00,,,0.00,497,Wunderground v.1.15,2013-01-24 18:50:00,
2013-01-24 13:55:00,25.6,-1.6,30.47,NE,46,7.0,7.0,30,0.00,,,0.00,497,Wunderground v.1.15,2013-01-24 18:55:00,
2013-01-24 14:05:00,26.0,-0.6,30.46,NE,55,5.0,8.0,31,0.00,,,0.00,396,Wunderground v.1.15,2013-01-24 19:05:00,
2013-01-24 14:10:00,26.0,0.1,30.46,ESE,103,6.0,8.0,32,0.00,,,0.00,397,Wunderground v.1.15,2013-01-24 19:10:00,
2013-01-24 14:20:00,26.1,-0.5,30.45,East,93,6.0,11.0,31,0.00,,,0.00,496,Wunderground v.1.15,2013-01-24 19:20:00,
2013-01-24 14:25:00,26.0,-2.0,30.45,ENE,75,7.0,11.0,29,0.00,,,0.00,454,Wunderground v.1.15,2013-01-24 19:25:00,
2013-01-24 14:35:00,26.5,-0.8,30.44,East,100,5.0,9.0,30,0.00,,,0.00,390,Wunderground v.1.15,2013-01-24 19:35:00,
2013-01-24 14:40:00,26.3,-0.3,30.44,East,89,5.0,5.0,31,0.00,,,0.00,308,Wunderground v.1.15,2013-01-24 19:40:00,
2013-01-24 14:50:00,25.9,-0.6,30.44,ESE,112,7.0,7.0,31,0.00,,,0.00,371,Wunderground v.1.15,2013-01-24 19:50:00,
2013-01-24 14:55:00,26.0,-0.6,30.44,North,354,6.0,7.0,31,0.00,,,0.00,279,Wunderground v.1.15,2013-01-24 19:55:00,
2013-01-24 15:05:00,26.1,-1.2,30.44,NNE,32,5.0,5.0,30,0.00,,,0.00,241,Wunderground v.1.15,2013-01-24 20:05:00,
2013-01-24 15:10:00,26.1,-0.5,30.44,ENE,62,6.0,6.0,31,0.00,,,0.00,272,Wunderground v.1.15,2013-01-24 20:10:00,
2013-01-24 15:20:00,26.4,-2.4,30.44,NE,45,6.0,6.0,28,0.00,,,0.00,394,Wunderground v.1.15,2013-01-24 20:20:00,
2013-01-24 15:25:00,26.3,-2.4,30.45,ESE,102,5.0,6.0,28,0.00,,,0.00,364,Wunderground v.1.15,2013-01-24 20:25:00,
2013-01-24 15:35:00,26.6,-2.2,30.45,East,88,6.0,6.0,28,0.00,,,0.00,338,Wunderground v.1.15,2013-01-24 20:35:00,
2013-01-24 15:40:00,26.9,-1.9,30.45,East,101,6.0,6.0,28,0.00,,,0.00,297,Wunderground v.1.15,2013-01-24 20:40:00,
2013-01-24 15:50:00,26.9,-1.9,30.45,NE,54,5.0,6.0,28,0.00,,,0.00,357,Wunderground v.1.15,2013-01-24 20:50:00,
2013-01-24 16:00:00,26.8,-2.8,30.45,NE,45,6.0,7.0,27,0.00,,,0.00,253,Wunderground v.1.15,2013-01-24 21:00:00,
2013-01-24 16:05:00,26.4,-3.1,30.44,NNE,30,6.0,7.0,27,0.00,,,0.00,148,Wunderground v.1.15,2013-01-24 21:05:00,
2013-01-24 16:15:00,26.2,-3.3,30.44,ENE,76,6.0,7.0,27,0.00,,,0.00,183,Wunderground v.1.15,2013-01-24 21:15:00,
2013-01-24 16:20:00,26.1,-2.6,30.44,ENE,78,5.0,5.0,28,0.00,,,0.00,262,Wunderground v.1.15,2013-01-24 21:20:00,
2013-01-24 16:30:00,26.5,-1.5,30.43,East,100,6.0,10.0,29,0.00,,,0.00,239,Wunderground v.1.15,2013-01-24 21:30:00,
2013-01-24 16:35:00,26.5,-1.5,30.43,ENE,71,7.0,10.0,29,0.00,,,0.00,255,Wunderground v.1.15,2013-01-24 21:35:00,
2013-01-24 16:45:00,26.5,-0.8,30.43,NE,52,5.0,9.0,30,0.00,,,0.00,192,Wunderground v.1.15,2013-01-24 21:45:00,
2013-01-24 16:50:00,26.5,-0.8,30.43,East,81,6.0,6.0,30,0.00,,,0.00,148,Wunderground v.1.15,2013-01-24 21:50:00,
2013-01-24 17:00:00,26.3,-1.0,30.43,SSE,151,5.0,5.0,30,0.00,,,0.00,144,Wunderground v.1.15,2013-01-24 22:00:00,
2013-01-24 17:05:00,26.4,-0.2,30.43,ENE,68,4.0,5.0,31,0.00,,,0.00,65,Wunderground v.1.15,2013-01-24 22:05:00,
2013-01-24 17:15:00,26.0,-0.6,30.43,ESE,110,4.0,5.0,31,0.00,,,0.00,54,Wunderground v.1.15,2013-01-24 22:15:00,
2013-01-24 17:25:00,25.9,0.0,30.43,East,81,3.0,4.0,32,0.00,,,0.00,33,Wunderground v.1.15,2013-01-24 22:25:00,
2013-01-24 17:35:00,25.6,-0.9,30.43,ENE,78,4.0,4.0,31,0.00,,,0.00,25,Wunderground v.1.15,2013-01-24 22:35:00,
2013-01-24 17:45:00,25.4,-0.4,30.43,East,98,4.0,5.0,32,0.00,,,0.00,14,Wunderground v.1.15,2013-01-24 22:45:00,
2013-01-24 17:55:00,25.1,-0.7,30.43,East,95,3.0,4.0,32,0.00,,,0.00,0,Wunderground v.1.15,2013-01-24 22:55:00,
2013-01-24 18:00:00,25.0,-0.1,30.42,East,94,4.0,4.0,33,0.00,,,0.00,0,Wunderground v.1.15,2013-01-24 23:00:00,
2013-01-24 18:10:00,24.8,0.4,30.42,ESE,105,4.0,4.0,34,0.00,,,0.00,0,Wunderground v.1.15,2013-01-24 23:10:00,
2013-01-24 18:15:00,24.8,1.0,30.42,East,95,4.0,4.0,35,0.00,,,0.00,0,Wunderground v.1.15,2013-01-24 23:15:00,
2013-01-24 18:25:00,24.8,0.4,30.42,ENE,58,3.0,7.0,34,0.00,,,0.00,0,Wunderground v.1.15,2013-01-24 23:25:00,
2013-01-24 18:30:00,24.7,0.3,30.40,East,96,5.0,5.0,34,0.00,,,0.00,0,Wunderground v.1.15,2013-01-24 23:30:00,
2013-01-24 18:40:00,24.6,0.2,30.42,East,95,4.0,4.0,34,0.00,,,0.00,0,Wunderground v.1.15,2013-01-24 23:40:00,
2013-01-24 18:50:00,24.6,0.2,30.42,East,87,4.0,4.0,34,0.00,,,0.00,0,Wunderground v.1.15,2013-01-24 23:50:00,
2013-01-24 19:00:00,24.5,0.7,30.42,East,94,5.0,5.0,35,0.00,,,0.00,0,Wunderground v.1.15,2013-01-25 00:00:00,
2013-01-24 19:10:00,24.4,0.6,30.42,ENE,77,5.0,5.0,35,0.00,,,0.00,0,Wunderground v.1.15,2013-01-25 00:10:00,
2013-01-24 19:20:00,24.3,1.1,30.42,ENE,71,4.0,4.0,36,0.00,,,0.00,0,Wunderground v.1.15,2013-01-25 00:20:00,
2013-01-24 19:30:00,24.3,1.1,30.42,East,95,5.0,6.0,36,0.00,,,0.00,0,Wunderground v.1.15,2013-01-25 00:30:00,
2013-01-24 19:40:00,24.3,1.7,30.42,East,87,3.0,5.0,37,0.00,,,0.00,0,Wunderground v.1.15,2013-01-25 00:40:00,
2013-01-24 19:50:00,24.2,1.6,30.43,ESE,104,2.0,2.0,37,0.00,,,0.00,0,Wunderground v.1.15,2013-01-25 00:50:00,
2013-01-24 20:00:00,24.0,2.0,30.42,ESE,108,2.0,4.0,38,0.00,,,0.00,0,Wunderground v.1.15,2013-01-25 01:00:00,
2013-01-24 20:10:00,24.2,2.2,30.42,East,100,4.0,4.0,38,0.00,,,0.00,0,Wunderground v.1.15,2013-01-25 01:10:00,
2013-01-24 20:15:00,24.1,2.1,30.43,East,83,3.0,4.0,38,0.00,,,0.00,0,Wunderground v.1.15,2013-01-25 01:15:00,
2013-01-24 20:25:00,24.0,2.6,30.42,East,91,4.0,8.0,39,0.00,,,0.00,0,Wunderground v.1.15,2013-01-25 01:25:00,
2013-01-24 20:30:00,24.0,2.0,30.41,ESE,104,5.0,5.0,38,0.00,,,0.00,0,Wunderground v.1.15,2013-01-25 01:30:00,
2013-01-24 20:40:00,24.0,2.0,30.41,ESE,106,4.0,4.0,38,0.00,,,0.00,0,Wunderground v.1.15,2013-01-25 01:40:00,
2013-01-24 20:50:00,24.0,2.6,30.40,ESE,103,4.0,4.0,39,0.00,,,0.00,0,Wunderground v.1.15,2013-01-25 01:50:00,
2013-01-24 21:00:00,24.0,2.6,30.40,East,91,3.0,6.0,39,0.00,,,0.00,0,Wunderground v.1.15,2013-01-25 02:00:00,
2013-01-24 21:10:00,23.9,2.5,30.40,ENE,73,4.0,4.0,39,0.00,,,0.00,0,Wunderground v.1.15,2013-01-25 02:10:00,
2013-01-24 21:15:00,24.0,3.1,30.39,East,83,3.0,6.0,40,0.00,,,0.00,0,Wunderground v.1.15,2013-01-25 02:15:00,
2013-01-24 21:25:00,24.2,2.8,30.38,SE,136,5.0,5.0,39,0.00,,,0.00,0,Wunderground v.1.15,2013-01-25 02:25:00,
2013-01-24 21:35:00,24.2,2.8,30.38,SSE,149,4.0,9.0,39,0.00,,,0.00,0,Wunderground v.1.15,2013-01-25 02:35:00,
2013-01-24 21:45:00,24.2,2.8,30.39,ESE,106,6.0,7.0,39,0.00,,,0.00,0,Wunderground v.1.15,2013-01-25 02:45:00,
2013-01-24 21:55:00,24.0,3.1,30.38,SE,126,4.0,5.0,40,0.00,,,0.00,0,Wunderground v.1.15,2013-01-25 02:55:00,
2013-01-24 22:05:00,23.9,3.0,30.37,ESE,111,7.0,7.0,40,0.00,,,0.00,0,Wunderground v.1.15,2013-01-25 03:05:00,
2013-01-24 22:15:00,23.8,3.0,30.37,East,85,4.0,6.0,40,0.00,,,0.00,0,Wunderground v.1.15,2013-01-25 03:15:00,
2013-01-24 22:25:00,23.8,3.0,30.37,East,95,4.0,4.0,40,0.00,,,0.00,0,Wunderground v.1.15,2013-01-25 03:25:00,
2013-01-24 22:35:00,23.8,3.5,30.36,East,82,3.0,8.0,41,0.00,,,0.00,0,Wunderground v.1.15,2013-01-25 03:35:00,
2013-01-24 22:40:00,23.7,2.9,30.36,ENE,77,5.0,5.0,40,0.00,,,0.00,0,Wunderground v.1.15,2013-01-25 03:40:00,
2013-01-24 22:50:00,23.6,2.8,30.36,ESE,118,5.0,8.0,40,0.00,,,0.00,0,Wunderground v.1.15,2013-01-25 03:50:00,
2013-01-24 23:00:00,23.5,3.2,30.35,ESE,102,5.0,5.0,41,0.00,,,0.00,0,Wunderground v.1.15,2013-01-25 04:00:00,
2013-01-24 23:10:00,23.5,3.2,30.35,East,92,6.0,6.0,41,0.00,,,0.00,0,Wunderground v.1.15,2013-01-25 04:10:00,
2013-01-24 23:20:00,23.4,3.6,30.34,SE,143,5.0,5.0,42,0.00,,,0.00,0,Wunderground v.1.15,2013-01-25 04:20:00,
2013-01-24 23:30:00,23.3,4.1,30.33,East,89,4.0,5.0,43,0.00,,,0.00,0,Wunderground v.1.15,2013-01-25 04:30:00,
2013-01-24 23:40:00,23.2,4.5,30.34,SE,126,2.0,7.0,44,0.00,,,0.00,0,Wunderground v.1.15,2013-01-25 04:40:00,
2013-01-24 23:45:00,23.2,4.5,30.34,SSE,152,3.0,7.0,44,0.00,,,0.00,0,Wunderground v.1.15,2013-01-25 04:45:00,
2013-01-24 23:55:00,23.3,4.6,30.37,ESE,104,3.0,4.0,44,0.00,,,0.00,0,Wunderground v.1.15,2013-01-25 04:55:00,